Location: Les Jeannots
(43.2262°N, 5.5774°E)
Time: 17:32:06
(UTC+00:00)

USA 215 - Pass Details

Date: 05 July 2020
Orbit: 1102 x 1106 km, 123.0° (Epoch: 08 August)

Event Time Altitude Azimuth Distance (km) Brightness Sun altitude
Rises 20:59:06 0° 49° (NE) 3,925 6.2 -14.2°
Reaches altitude 10° 21:01:37 10° 52° (NE) 2,964 5.5 -14.4°
Maximum altitude 21:08:09 73° 137° (SE) 1,150 3.2 -15.2°
Drops below altitude 10° 21:14:40 10° 222° (SW) 2,952 5.4 -15.9°
Sets 21:17:09 0° 224° (SW) 3,907 6.0 -16.1°
